Location: Del Amo
(33.8464°N, 118.2104°W)
Time: 01:55:51
(UTC+00:00)

SR - Pass Details

Date: 20 September 2024
Orbit: 578 x 855 km, 66.7° (Epoch: 02 October)

Event Time Altitude Azimuth Distance (km) Brightness Sun altitude
Rises 06:09:44 0° 316° (NW) 3,040 ? -48.5°
Enters shadow 06:10:22 - 314° (NW) 2,823 ? -48.6°
Reaches altitude 10° 06:12:24 10° 302° (WNW) 2,171 - -48.9°
Maximum altitude 06:16:13 23° 251° (WSW) 1,553 - -49.4°
Drops below altitude 10° 06:20:14 10° 201° (SSW) 2,304 - -49.8°
Sets 06:23:10 0° 187° (S) 3,276 - -50.2°
